Regional Weather Roundup
Issued by NWS

Home | Current Version | Previous Version | Text Only | Print | Product List | Glossary Off
Versions: 1 2 3 4 5 6 7 8 9 10 11 12 13 14 15 16 17 18 19 20 21 22 23 24 25 26 27 28 29 30 31 32 33 34 35 36 37 38 39 40 41 42 43 44 45 46 47 48 49 50

000
ASUS45 KCYS 212110
RWRWY

WYOMING REGIONAL WEATHER ROUNDUP
NATIONAL WEATHER SERVICE CHEYENNE WY
300 PM MDT THU MAY 21 2015

NOTE:  "FAIR" INDICATES FEW OR NO CLOUDS BELOW 12,000 FEET
WITH NO SIGNIFICANT WEATHER AND/OR OBSTRUCTIONS TO VISIBILITY.

WYZ001-212200-
YELLOWSTONE NATIONAL PARK

CITY           SKY/WX    TMP DP  RH WIND       PRES   REMARKS
LK YELLOWSTONE   N/A     51  32  48 VRB3      30.09F
W YELLOWSTONE  NOT AVBL

$$
WYZ002>013-054>058-071-098>099-212200-
NORTHERN WYOMING

CITY           SKY/WX    TMP DP  RH WIND       PRES   REMARKS
JACKSON        SUNNY     61  34  36 SW9G20    30.01F
CODY           FAIR      59  43  55 NE3       30.04F
GREYBULL       FAIR      66  36  32 CALM      30.01F
WORLAND        FAIR      64  40  41 CALM      30.01F
SHERIDAN       FAIR      62  41  46 SE15G22   30.07F
BUFFALO        CLOUDY    56  41  57 SE15      30.11F
GILLETTE       FAIR      55  40  56 SE16      30.13F
HULETT         FAIR      64  30  27 E14       30.13F
NEWCASTLE      FAIR      57  37  47 SE12G26   30.16F

$$
WYZ014>020-022>026-101>103-212200-
CENTRAL WYOMING

CITY           SKY/WX    TMP DP  RH WIND       PRES   REMARKS
BIG PINEY      FAIR      58  39  49 SE7       30.07F
PINEDALE       FAIR      57  36  44 S8        30.08F
DUBOIS         FAIR      54  36  50 E13G20    30.06F
LANDER         PTSUNNY   58  42  55 NE7       30.03F
RIVERTON       FAIR      58  41  53 VRB6      30.06F
CASPER         FAIR      59  42  53 E13G20    30.08F
DOUGLAS        FAIR      57  41  55 SE17G26   30.12F

$$
WYZ021-027>030-104>119-212200-
SOUTHERN WYOMING

CITY           SKY/WX    TMP DP  RH WIND       PRES   REMARKS
EVANSTON       LGT RAIN  47  37  68 W14       30.05F
KEMMERER       MOCLDY    54  37  54 E9        30.07F
FORT BRIDGER   CLOUDY    48  45  87 N12       30.08F
ROCK SPRINGS   TSTM      53  35  50 S32G41    30.04F
DIXON          FAIR      63  35  35 E9        30.08F
RAWLINS        FAIR      62  35  36 NE6       30.07F
SARATOGA       CLOUDY    57  36  44 MISG      30.10F
LARAMIE        LGT RAIN  45  39  79 S21       30.15R
CHEYENNE       CLOUDY    47  40  76 S10       30.17F
TORRINGTON     CLOUDY    55  42  61 SE14G21   30.15F
PINE BLUFFS    CLOUDY    50  41  71 SE13G21   30.19F

$$


USA.gov is the U.S. government's official web portal to all federal, state and local government web resources and services.